{"data":{"norad_id":64254,"epoch":"2026-09-20T18:58:55.354944Z","epoch_age_seconds":112704,"freshness":"FRESH","line1":"1 64254U 25119X   26263.79091846  .00014887  00000+0  54920-3 0  9992","line2":"2 64254  43.0036 285.5608 0002223 290.2848  69.7765 15.27592523 74007","mean_motion":15.27592523,"eccentricity":0.0002223,"inclination_deg":43.0036,"raan_deg":285.5608,"arg_perigee_deg":290.2848,"mean_anomaly_deg":69.7765,"bstar":0.0005492,"rev_number":7400,"period_min":94.265975927404,"perigee_km":481.48636459538,"apogee_km":484.53683126202,"semimajor_km":6861.1485979287,"source":"CELESTRAK","updated_at":"2026-09-21T09:00:35.280773Z"}}